When you browse on this site, cookies collect data to enhance your experience and personalize the content and advertising you see.
Visit our Privacy Policy to learn more. By continuing to use the site, you agree to this use of cookies and data.
  • In Deutschland
  • Länderverzeichnis
  • Für 7 Tage
  • Wassertemperatur
  • Satellitenkarten
  • Wetterkarte
  • Widgets
  • user-avatar
    Anmelden

    Stündliche Wetter Butzbach

    Heute, 19 Dezember, Mittwoch

    Zeit Temperatur Niederschläge Wind Luftdruck Luftfeuchtigkeit
    00:00 0°C° 0 mm 3 m/S 744 mmHg 89%
    01:00 0°C° 0 mm 3 m/S 743 mmHg 88%
    02:00 +1°C° 0 mm 2 m/S 743 mmHg 85%
    03:00 +1°C° 0 mm 2 m/S 743 mmHg 82%
    04:00 +1°C° 0 mm 2 m/S 742 mmHg 80%
    05:00 +1°C° 0 mm 2 m/S 742 mmHg 78%
    06:00 +2°C° 0 mm 2 m/S 742 mmHg 77%
    07:00 +2°C° 0 mm 2 m/S 742 mmHg 76%
    08:00 +2°C° 0.1 mm 2 m/S 742 mmHg 77%
    09:00 +3°C° 0.1 mm 2 m/S 742 mmHg 79%
    10:00 +3°C° 0.1 mm 2 m/S 743 mmHg 81%
    11:00 +4°C° 0 mm 2 m/S 743 mmHg 83%
    12:00 +4°C° 0 mm 2 m/S 742 mmHg 85%
    13:00 +5°C° 0 mm 2 m/S 742 mmHg 87%
    14:00 +5°C° 0 mm 2 m/S 742 mmHg 89%
    15:00 +5°C° 0 mm 2 m/S 742 mmHg 92%
    16:00 +4°C° 0 mm 2 m/S 742 mmHg 94%
    17:00 +4°C° 0 mm 2 m/S 742 mmHg 95%
    18:00 +4°C° 0 mm 2 m/S 742 mmHg 96%
    19:00 +4°C° 0 mm 2 m/S 742 mmHg 97%
    20:00 +4°C° 0 mm 2 m/S 742 mmHg 97%
    21:00 +4°C° 0 mm 2 m/S 742 mmHg 97%
    22:00 +4°C° 0 mm 2 m/S 742 mmHg 97%
    23:00 +4°C° 0.2 mm 2 m/S 742 mmHg 97%

    Morgen, 20 Dezember, Donnerstag

    Zeit Temperatur Niederschläge Wind Luftdruck Luftfeuchtigkeit
    00:00 +4°C° 0.2 mm 2 m/S 742 mmHg 97%
    01:00 +4°C° 0.2 mm 2 m/S 742 mmHg 96%
    02:00 +4°C° 0 mm 2 m/S 742 mmHg 96%
    03:00 +4°C° 0 mm 2 m/S 742 mmHg 96%
    04:00 +4°C° 0 mm 2 m/S 742 mmHg 96%
    05:00 +4°C° 0 mm 2 m/S 742 mmHg 96%
    06:00 +3°C° 0 mm 3 m/S 743 mmHg 95%
    07:00 +3°C° 0 mm 3 m/S 743 mmHg 94%
    08:00 +4°C° 0 mm 3 m/S 743 mmHg 93%
    09:00 +4°C° 0 mm 3 m/S 743 mmHg 92%
    10:00 +4°C° 0 mm 3 m/S 743 mmHg 90%
    11:00 +4°C° 0.3 mm 4 m/S 743 mmHg 88%
    12:00 +5°C° 0.3 mm 4 m/S 743 mmHg 87%
    13:00 +5°C° 0.3 mm 4 m/S 743 mmHg 85%
    14:00 +5°C° 0.1 mm 4 m/S 743 mmHg 84%
    15:00 +5°C° 0.1 mm 4 m/S 743 mmHg 84%
    16:00 +5°C° 0.1 mm 4 m/S 744 mmHg 84%
    17:00 +5°C° 0 mm 4 m/S 744 mmHg 85%
    18:00 +4°C° 0 mm 4 m/S 744 mmHg 86%
    19:00 +4°C° 0 mm 4 m/S 744 mmHg 87%
    20:00 +4°C° 0 mm 4 m/S 744 mmHg 87%
    21:00 +4°C° 0 mm 4 m/S 744 mmHg 87%
    22:00 +4°C° 0 mm 4 m/S 744 mmHg 87%
    23:00 +3°C° 0.1 mm 5 m/S 744 mmHg 87%

    übermorgen, 21 Dezember, Freitag

    Zeit Temperatur Niederschläge Wind Luftdruck Luftfeuchtigkeit
    00:00 +5°C° 0.1 mm 5 m/S 743 mmHg 87%
    01:00 +5°C° 0.1 mm 5 m/S 743 mmHg 87%
    02:00 +5°C° 0.1 mm 5 m/S 743 mmHg 87%
    03:00 +5°C° 0.1 mm 4 m/S 742 mmHg 88%
    04:00 +5°C° 0.1 mm 4 m/S 742 mmHg 89%
    05:00 +5°C° 1 mm 4 m/S 741 mmHg 89%
    06:00 +5°C° 1 mm 5 m/S 741 mmHg 89%
    07:00 +5°C° 1 mm 5 m/S 740 mmHg 90%
    08:00 +6°C° 1.1 mm 5 m/S 739 mmHg 89%
    09:00 +5°C° 1.1 mm 6 m/S 738 mmHg 88%
    10:00 +6°C° 1.1 mm 7 m/S 738 mmHg 87%
    11:00 +8°C° 1.2 mm 7 m/S 737 mmHg 86%
    12:00 +7°C° 1.2 mm 8 m/S 736 mmHg 84%
    13:00 +9°C° 1.2 mm 8 m/S 736 mmHg 83%
    14:00 +9°C° 0.6 mm 8 m/S 736 mmHg 83%
    15:00 +10°C° 0.6 mm 8 m/S 736 mmHg 82%
    16:00 +10°C° 0.6 mm 7 m/S 737 mmHg 81%
    17:00 +10°C° 0.2 mm 7 m/S 737 mmHg 81%
    18:00 +9°C° 0.2 mm 7 m/S 738 mmHg 81%
    19:00 +9°C° 0.2 mm 6 m/S 738 mmHg 80%
    20:00 +8°C° 0 mm 6 m/S 739 mmHg 79%
    21:00 +8°C° 0 mm 6 m/S 739 mmHg 79%
    22:00 +7°C° 0 mm 5 m/S 740 mmHg 78%
    23:00 +7°C° 0 mm 5 m/S 740 mmHg 79%

    22 Dezember, Samstag

    Zeit Temperatur Niederschläge Wind Luftdruck Luftfeuchtigkeit
    00:00 +6°C° 0 mm 5 m/S 740 mmHg 81%
    01:00 +6°C° 0 mm 5 m/S 740 mmHg 83%
    02:00 +6°C° 0 mm 4 m/S 740 mmHg 84%
    03:00 +6°C° 0 mm 4 m/S 740 mmHg 86%
    04:00 +6°C° 0 mm 4 m/S 739 mmHg 87%
    05:00 +7°C° 0 mm 4 m/S 739 mmHg 88%
    06:00 +7°C° 0 mm 4 m/S 739 mmHg 90%
    07:00 +7°C° 0 mm 4 m/S 738 mmHg 91%
    08:00 +8°C° 0.3 mm 5 m/S 738 mmHg 87%
    09:00 +9°C° 0.3 mm 6 m/S 738 mmHg 83%
    10:00 +10°C° 0.3 mm 7 m/S 738 mmHg 80%
    11:00 +9°C° 0.1 mm 7 m/S 739 mmHg 76%
    12:00 +9°C° 0.1 mm 8 m/S 739 mmHg 72%
    13:00 +9°C° 0.1 mm 8 m/S 740 mmHg 68%
    14:00 +9°C° 0.1 mm 7 m/S 740 mmHg 70%
    15:00 +8°C° 0.1 mm 7 m/S 741 mmHg 72%
    16:00 +8°C° 0.1 mm 6 m/S 741 mmHg 74%
    17:00 +8°C° 0.1 mm 6 m/S 742 mmHg 75%
    18:00 +7°C° 0.1 mm 6 m/S 743 mmHg 77%
    19:00 +7°C° 0.1 mm 5 m/S 743 mmHg 79%
    20:00 +6°C° 0 mm 5 m/S 744 mmHg 80%
    21:00 +6°C° 0 mm 4 m/S 744 mmHg 82%
    22:00 +6°C° 0 mm 4 m/S 744 mmHg 84%
    23:00 +6°C° 0.1 mm 4 m/S 745 mmHg 84%

    23 Dezember, Sonntag

    Zeit Temperatur Niederschläge Wind Luftdruck Luftfeuchtigkeit
    00:00 +6°C° 0.1 mm 4 m/S 745 mmHg 83%
    01:00 +6°C° 0.1 mm 5 m/S 745 mmHg 83%
    02:00 +6°C° 0.1 mm 4 m/S 745 mmHg 84%
    03:00 +5°C° 0.1 mm 4 m/S 746 mmHg 85%
    04:00 +5°C° 0.1 mm 4 m/S 746 mmHg 86%
    05:00 +5°C° 0 mm 4 m/S 746 mmHg 87%
    06:00 +5°C° 0 mm 3 m/S 746 mmHg 88%
    07:00 +5°C° 0 mm 3 m/S 746 mmHg 89%
    08:00 +5°C° 0 mm 3 m/S 747 mmHg 89%
    09:00 +5°C° 0 mm 3 m/S 747 mmHg 89%
    10:00 +5°C° 0 mm 3 m/S 747 mmHg 88%
    11:00 +7°C° 0 mm 3 m/S 747 mmHg 85%
    12:00 +7°C° 0 mm 3 m/S 747 mmHg 82%
    13:00 +8°C° 0 mm 3 m/S 747 mmHg 79%
    14:00 +7°C° 0 mm 3 m/S 747 mmHg 81%
    15:00 +7°C° 0 mm 2 m/S 747 mmHg 83%
    16:00 +8°C° 0 mm 1 m/S 747 mmHg 85%
    17:00 +7°C° 0 mm 1 m/S 747 mmHg 87%
    18:00 +7°C° 0 mm 1 m/S 747 mmHg 89%
    19:00 +6°C° 0 mm 1 m/S 748 mmHg 91%
    20:00 +6°C° 0 mm 1 m/S 748 mmHg 91%
    21:00 +6°C° 0 mm 1 m/S 748 mmHg 92%
    22:00 +6°C° 0 mm 1 m/S 748 mmHg 92%
    23:00 +6°C° 0.2 mm 1 m/S 748 mmHg 93%

    24 Dezember, Montag

    Zeit Temperatur Niederschläge Wind Luftdruck Luftfeuchtigkeit
    00:00 +6°C° 0.2 mm 1 m/S 747 mmHg 93%
    01:00 +6°C° 0.2 mm 1 m/S 747 mmHg 94%
    02:00 +6°C° 0.2 mm 1 m/S 747 mmHg 94%
    03:00 +5°C° 0.2 mm 0 m/S 747 mmHg 94%
    04:00 +5°C° 0.2 mm 0 m/S 747 mmHg 94%
    05:00 +5°C° 0.2 mm 0 m/S 747 mmHg 94%
    06:00 +5°C° 0.2 mm 0 m/S 747 mmHg 94%
    07:00 +6°C° 0.2 mm 1 m/S 747 mmHg 94%
    08:00 +5°C° 0 mm 0 m/S 748 mmHg 93%
    09:00 +5°C° 0 mm 0 m/S 748 mmHg 91%
    10:00 +5°C° 0 mm 0 m/S 748 mmHg 90%
    11:00 +6°C° 0 mm 0 m/S 748 mmHg 87%
    12:00 +6°C° 0 mm 0 m/S 748 mmHg 83%
    13:00 +7°C° 0 mm 0 m/S 748 mmHg 80%
    14:00 +6°C° 0 mm 0 m/S 748 mmHg 82%
    15:00 +6°C° 0 mm 0 m/S 748 mmHg 85%
    16:00 +5°C° 0 mm 0 m/S 748 mmHg 87%
    17:00 +5°C° 0 mm 0 m/S 748 mmHg 88%
    18:00 +5°C° 0 mm 0 m/S 749 mmHg 89%
    19:00 +4°C° 0 mm 0 m/S 749 mmHg 90%
    20:00 +5°C° 0 mm 1 m/S 749 mmHg 90%
    21:00 +4°C° 0 mm 1 m/S 749 mmHg 91%
    22:00 +4°C° 0 mm 1 m/S 749 mmHg 91%
    23:00 +4°C° 0 mm 1 m/S 749 mmHg 92%
    Mehr zeigen